{"data":{"norad_id":68837,"intl_designator":"2026-093A","name":"PROGRESS-MS 34","alt_names":[],"object_type":"PAYLOAD","status":"ACTIVE","operator":null,"country":"CIS","launch_date":"2026-04-25","launch_site_code":"TYMSC","launch_vehicle":null,"mission":null,"orbit_class":"UNKNOWN","rcs_meters":null,"size_class":null,"mass_kg":null,"dimensions":null,"purposes":["station"],"wikipedia_slug":null,"has_3d_model":false,"image_url":null,"decayed_at":null,"tle_current":{"epoch":"2026-09-19T19:40:49.537920Z","epoch_age_seconds":73223,"freshness":"FRESH","line1":"1 68837U 26093A   26262.82001780  .00006624  00000+0  12748-3 0  9998","line2":"2 68837  51.6308 191.7362 0004806 159.4528 200.6655 15.49182630586897","mean_motion":15.4918263,"eccentricity":0.0004806,"inclination_deg":51.6308,"raan_deg":191.7362,"arg_perigee_deg":159.4528,"mean_anomaly_deg":200.6655,"bstar":0.00012748,"rev_number":58689,"period_min":92.952242822397,"perigee_km":415.84914130907,"apogee_km":422.38266079757,"semimajor_km":6797.2529010533,"source":"CELESTRAK","updated_at":"2026-09-20T09:00:28.696569Z"}}}